DateTime, Accumulation (mm), Intensity (mm/hr), 30s_intervals_count 
2019-10-01 00:00,,,21
2019-10-01 00:15,0.118,0.472,30
2019-10-01 00:30,0.097,0.387,30
2019-10-01 00:45,0.076,0.304,30
2019-10-01 01:00,0.065,0.262,30
2019-10-01 01:15,0.062,0.249,30
2019-10-01 01:30,0.059,0.238,30
2019-10-01 01:45,0.064,0.255,30
2019-10-01 02:00,0.095,0.378,30
2019-10-01 02:15,0.117,0.467,30
2019-10-01 02:30,0.141,0.564,30
2019-10-01 02:45,0.173,0.694,30
2019-10-01 03:00,0.205,0.822,30
2019-10-01 03:15,0.208,0.832,30
2019-10-01 03:30,0.168,0.673,30
2019-10-01 03:45,0.108,0.430,30
2019-10-01 04:00,0.092,0.370,30
2019-10-01 04:15,0.083,0.332,30
2019-10-01 04:30,0.087,0.349,30
2019-10-01 04:45,0.088,0.354,30
2019-10-01 05:00,0.090,0.359,30
2019-10-01 05:15,0.082,0.328,30
2019-10-01 05:30,0.081,0.322,30
2019-10-01 05:45,0.065,0.262,30
2019-10-01 06:00,0.065,0.261,30
2019-10-01 06:15,0.100,0.400,30
2019-10-01 06:30,0.152,0.609,30
2019-10-01 06:45,0.171,0.686,30
2019-10-01 07:00,0.134,0.534,30
2019-10-01 07:15,0.105,0.419,30
2019-10-01 07:30,0.107,0.428,30
2019-10-01 07:45,0.112,0.448,30
2019-10-01 08:00,0.115,0.461,30
2019-10-01 08:15,0.099,0.397,30
2019-10-01 08:30,0.099,0.398,30
2019-10-01 08:45,0.110,0.440,30
2019-10-01 09:00,0.109,0.436,30
2019-10-01 09:15,0.101,0.403,30
2019-10-01 09:30,0.096,0.383,30
2019-10-01 09:45,0.079,0.316,30
2019-10-01 10:00,0.073,0.293,30
2019-10-01 10:15,0.062,0.247,30
2019-10-01 10:30,0.054,0.215,30
2019-10-01 10:45,0.042,0.167,30
2019-10-01 11:00,0.034,0.135,30
2019-10-01 11:15,0.026,0.105,30
2019-10-01 11:30,0.026,0.102,30
2019-10-01 11:45,0.024,0.097,30
2019-10-01 12:00,0.020,0.078,30
2019-10-01 12:15,0.009,0.037,30
2019-10-01 12:30,0.003,0.014,30
2019-10-01 12:45,0.002,0.007,30
2019-10-01 13:00,0.001,0.003,30
2019-10-01 13:15,0.000,0.001,30
2019-10-01 13:30,0.000,0.000,30
2019-10-01 13:45,0.000,0.000,30
2019-10-01 14:00,0.000,0.000,30
2019-10-01 14:15,0.000,0.000,30
2019-10-01 14:30,0.000,0.000,30
2019-10-01 14:45,0.000,0.000,30
2019-10-01 15:00,0.000,0.000,30
2019-10-01 15:15,0.000,0.000,30
2019-10-01 15:30,0.000,0.000,30
2019-10-01 15:45,0.000,0.000,30
2019-10-01 16:00,0.000,0.000,30
2019-10-01 16:15,0.000,0.000,30
2019-10-01 16:30,0.000,0.000,30
2019-10-01 16:45,0.000,0.000,30
2019-10-01 17:00,0.000,0.000,30
2019-10-01 17:15,0.000,0.000,30
2019-10-01 17:30,0.000,0.000,30
2019-10-01 17:45,0.000,0.000,30
2019-10-01 18:00,0.000,0.000,30
2019-10-01 18:15,0.000,0.000,30
2019-10-01 18:30,0.000,0.000,30
2019-10-01 18:45,0.000,0.000,30
2019-10-01 19:00,0.000,0.000,30
2019-10-01 19:15,0.000,0.000,30
2019-10-01 19:30,0.000,0.000,30
2019-10-01 19:45,0.000,0.000,30
2019-10-01 20:00,0.000,0.001,30
2019-10-01 20:15,0.001,0.005,30
2019-10-01 20:30,0.002,0.009,30
2019-10-01 20:45,0.003,0.012,30
2019-10-01 21:00,0.005,0.018,30
2019-10-01 21:15,0.005,0.020,30
2019-10-01 21:30,0.006,0.025,30
2019-10-01 21:45,0.010,0.039,30
2019-10-01 22:00,0.011,0.045,30
2019-10-01 22:15,0.007,0.026,30
2019-10-01 22:30,0.003,0.010,30
2019-10-01 22:45,0.001,0.005,30
2019-10-01 23:00,0.000,0.002,30
2019-10-01 23:15,0.000,0.000,30
2019-10-01 23:30,0.000,0.000,30
2019-10-01 23:45,0.000,0.000,30
2019-10-02 00:00,0.000,0.000,30
2019-10-02 00:15,0.000,0.000,30
2019-10-02 00:30,0.000,0.000,30
2019-10-02 00:45,0.000,0.000,30
2019-10-02 01:00,0.000,0.000,30
2019-10-02 01:15,0.000,0.000,30
2019-10-02 01:30,0.000,0.000,30
2019-10-02 01:45,0.000,0.000,30
2019-10-02 02:00,0.000,0.000,30
2019-10-02 02:15,0.000,0.000,30
2019-10-02 02:30,0.000,0.000,30
2019-10-02 02:45,0.000,0.000,30
2019-10-02 03:00,0.000,0.000,30
2019-10-02 03:15,0.000,0.000,30
2019-10-02 03:30,0.000,0.000,30
2019-10-02 03:45,0.000,0.000,30
2019-10-02 04:00,0.000,0.000,30
2019-10-02 04:15,0.000,0.000,30
2019-10-02 04:30,0.000,0.000,30
2019-10-02 04:45,0.000,0.000,30
2019-10-02 05:00,0.000,0.000,30
2019-10-02 05:15,0.000,0.000,30
2019-10-02 05:30,0.000,0.000,30
2019-10-02 05:45,0.000,0.000,30
2019-10-02 06:00,0.000,0.000,30
2019-10-02 06:15,0.000,0.000,30
2019-10-02 06:30,0.000,0.000,30
2019-10-02 06:45,0.000,0.000,30
2019-10-02 07:00,0.000,0.000,30
2019-10-02 07:15,0.000,0.000,30
2019-10-02 07:30,0.000,0.000,30
2019-10-02 07:45,0.000,0.000,30
2019-10-02 08:00,0.000,0.000,30
2019-10-02 08:15,0.000,0.000,30
2019-10-02 08:30,0.000,0.000,30
2019-10-02 08:45,0.000,0.000,30
2019-10-02 09:00,0.000,0.000,30
2019-10-02 09:15,0.000,0.000,30
2019-10-02 09:30,0.000,0.000,30
2019-10-02 09:45,0.000,0.000,30
2019-10-02 10:00,0.000,0.000,30
2019-10-02 10:15,0.000,0.000,30
2019-10-02 10:30,0.000,0.000,30
2019-10-02 10:45,0.000,0.000,30
2019-10-02 11:00,0.000,0.000,30
2019-10-02 11:15,0.000,0.000,30
2019-10-02 11:30,0.000,0.000,30
2019-10-02 11:45,0.000,0.000,30
2019-10-02 12:00,0.000,0.000,30
2019-10-02 12:15,0.000,0.000,30
2019-10-02 12:30,0.000,0.000,30
2019-10-02 12:45,0.000,0.000,30
2019-10-02 13:00,0.000,0.000,30
2019-10-02 13:15,0.000,0.000,30
2019-10-02 13:30,0.000,0.000,30
2019-10-02 13:45,0.000,0.000,30
2019-10-02 14:00,0.000,0.000,30
2019-10-02 14:15,0.000,0.000,30
2019-10-02 14:30,0.000,0.000,30
2019-10-02 14:45,0.000,0.000,30
2019-10-02 15:00,0.000,0.000,30
2019-10-02 15:15,0.000,0.000,30
2019-10-02 15:30,0.000,0.000,30
2019-10-02 15:45,0.000,0.000,30
2019-10-02 16:00,0.000,0.000,30
2019-10-02 16:15,0.000,0.000,30
2019-10-02 16:30,0.000,0.000,30
2019-10-02 16:45,0.000,0.000,30
2019-10-02 17:00,0.000,0.000,30
2019-10-02 17:15,0.000,0.000,30
2019-10-02 17:30,0.000,0.000,30
2019-10-02 17:45,0.000,0.000,30
2019-10-02 18:00,0.000,0.000,30
2019-10-02 18:15,0.000,0.000,30
2019-10-02 18:30,0.000,0.000,30
2019-10-02 18:45,0.000,0.000,30
2019-10-02 19:00,0.000,0.000,30
2019-10-02 19:15,0.000,0.000,30
2019-10-02 19:30,0.000,0.000,30
2019-10-02 19:45,0.000,0.000,30
2019-10-02 20:00,0.000,0.000,30
2019-10-02 20:15,0.000,0.000,30
2019-10-02 20:30,0.000,0.000,30
2019-10-02 20:45,0.000,0.000,30
2019-10-02 21:00,0.000,0.000,30
2019-10-02 21:15,0.000,0.000,30
2019-10-02 21:30,0.000,0.000,30
2019-10-02 21:45,0.000,0.000,30
2019-10-02 22:00,0.000,0.000,30
2019-10-02 22:15,0.000,0.000,30
2019-10-02 22:30,0.000,0.000,30
2019-10-02 22:45,0.000,0.000,30
2019-10-02 23:00,0.000,0.000,30
2019-10-02 23:15,0.000,0.000,30
2019-10-02 23:30,0.000,0.000,30
2019-10-02 23:45,0.000,0.000,30
2019-10-03 00:00,0.000,0.000,30
2019-10-03 00:15,0.000,0.000,30
2019-10-03 00:30,0.000,0.000,30
2019-10-03 00:45,0.000,0.000,30
2019-10-03 01:00,0.000,0.000,30
2019-10-03 01:15,0.000,0.000,30
2019-10-03 01:30,0.000,0.000,30
2019-10-03 01:45,0.000,0.000,30
2019-10-03 02:00,0.000,0.000,30
2019-10-03 02:15,0.000,0.000,30
2019-10-03 02:30,0.000,0.000,30
2019-10-03 02:45,0.000,0.000,30
2019-10-03 03:00,0.000,0.000,30
2019-10-03 03:15,0.000,0.000,30
2019-10-03 03:30,0.000,0.000,30
2019-10-03 03:45,0.000,0.000,30
2019-10-03 04:00,0.000,0.000,30
2019-10-03 04:15,0.000,0.000,30
2019-10-03 04:30,0.000,0.000,30
2019-10-03 04:45,0.000,0.000,30
2019-10-03 05:00,0.000,0.000,30
2019-10-03 05:15,0.000,0.000,30
2019-10-03 05:30,0.000,0.000,30
2019-10-03 05:45,0.000,0.000,30
2019-10-03 06:00,0.000,0.000,30
2019-10-03 06:15,0.000,0.000,30
2019-10-03 06:30,0.000,0.000,30
2019-10-03 06:45,0.000,0.000,30
2019-10-03 07:00,0.000,0.000,30
2019-10-03 07:15,0.000,0.000,30
2019-10-03 07:30,0.000,0.000,30
2019-10-03 07:45,0.000,0.000,30
2019-10-03 08:00,0.000,0.000,30
2019-10-03 08:15,0.000,0.000,30
2019-10-03 08:30,0.000,0.000,30
2019-10-03 08:45,0.000,0.000,30
2019-10-03 09:00,0.000,0.000,30
2019-10-03 09:15,0.000,0.000,30
2019-10-03 09:30,0.000,0.000,30
2019-10-03 09:45,0.000,0.000,30
2019-10-03 10:00,0.000,0.000,30
2019-10-03 10:15,0.000,0.000,30
2019-10-03 10:30,0.000,0.000,30
2019-10-03 10:45,0.000,0.000,30
2019-10-03 11:00,0.000,0.000,30
2019-10-03 11:15,0.000,0.001,30
2019-10-03 11:30,0.000,0.001,30
2019-10-03 11:45,0.000,0.000,30
2019-10-03 12:00,0.000,0.000,30
2019-10-03 12:15,0.000,0.002,30
2019-10-03 12:30,0.011,0.046,30
2019-10-03 12:45,0.029,0.117,30
2019-10-03 13:00,0.041,0.165,30
2019-10-03 13:15,0.054,0.216,30
2019-10-03 13:30,0.073,0.292,30
2019-10-03 13:45,0.073,0.292,30
2019-10-03 14:00,0.056,0.224,30
2019-10-03 14:15,0.038,0.150,30
2019-10-03 14:30,0.023,0.094,30
2019-10-03 14:45,0.012,0.049,30
2019-10-03 15:00,0.003,0.010,30
2019-10-03 15:15,0.000,0.000,30
2019-10-03 15:30,0.000,0.000,30
2019-10-03 15:45,0.000,0.000,30
2019-10-03 16:00,0.002,0.008,30
2019-10-03 16:15,0.015,0.062,30
2019-10-03 16:30,0.025,0.100,30
2019-10-03 16:45,0.029,0.114,30
2019-10-03 17:00,0.020,0.079,30
2019-10-03 17:15,0.013,0.050,30
2019-10-03 17:30,0.008,0.032,30
2019-10-03 17:45,0.012,0.048,30
2019-10-03 18:00,0.026,0.104,30
2019-10-03 18:15,0.035,0.140,30
2019-10-03 18:30,0.044,0.177,30
2019-10-03 18:45,0.071,0.283,30
2019-10-03 19:00,0.099,0.395,30
2019-10-03 19:15,0.098,0.391,30
2019-10-03 19:30,0.087,0.348,30
2019-10-03 19:45,0.098,0.391,30
2019-10-03 20:00,0.112,0.450,30
2019-10-03 20:15,0.104,0.418,30
2019-10-03 20:30,0.128,0.510,30
2019-10-03 20:45,0.160,0.639,30
2019-10-03 21:00,0.159,0.634,30
2019-10-03 21:15,0.147,0.590,30
2019-10-03 21:30,0.148,0.594,30
2019-10-03 21:45,0.141,0.564,30
2019-10-03 22:00,0.135,0.540,30
2019-10-03 22:15,0.123,0.490,30
2019-10-03 22:30,0.106,0.425,30
2019-10-03 22:45,0.098,0.390,30
2019-10-03 23:00,0.099,0.398,30
2019-10-03 23:15,0.077,0.309,30
2019-10-03 23:30,0.046,0.185,30
2019-10-03 23:45,0.029,0.116,30
2019-10-04 00:00,0.031,0.122,30
2019-10-04 00:15,0.036,0.143,30
2019-10-04 00:30,0.031,0.124,30
2019-10-04 00:45,0.017,0.068,30
2019-10-04 01:00,0.008,0.032,30
2019-10-04 01:15,0.004,0.015,30
2019-10-04 01:30,0.002,0.009,30
2019-10-04 01:45,0.001,0.005,30
2019-10-04 02:00,0.002,0.007,30
2019-10-04 02:15,0.002,0.006,30
2019-10-04 02:30,0.001,0.006,30
2019-10-04 02:45,0.003,0.010,30
2019-10-04 03:00,0.004,0.018,30
2019-10-04 03:15,0.004,0.017,30
2019-10-04 03:30,0.003,0.011,30
2019-10-04 03:45,0.002,0.008,30
2019-10-04 04:00,0.001,0.004,30
2019-10-04 04:15,0.001,0.004,30
2019-10-04 04:30,0.001,0.004,30
2019-10-04 04:45,0.001,0.003,30
2019-10-04 05:00,0.000,0.002,30
2019-10-04 05:15,0.000,0.001,30
2019-10-04 05:30,0.000,0.002,30
2019-10-04 05:45,0.000,0.002,30
2019-10-04 06:00,0.000,0.001,30
2019-10-04 06:15,0.000,0.001,30
2019-10-04 06:30,0.000,0.001,30
2019-10-04 06:45,0.001,0.003,30
2019-10-04 07:00,0.000,0.001,30
2019-10-04 07:15,0.000,0.001,30
2019-10-04 07:30,0.000,0.000,30
2019-10-04 07:45,0.000,0.000,30
2019-10-04 08:00,0.000,0.000,30
2019-10-04 08:15,0.000,0.000,30
2019-10-04 08:30,0.000,0.000,30
2019-10-04 08:45,0.000,0.000,30
2019-10-04 09:00,0.000,0.000,30
2019-10-04 09:15,0.000,0.000,30
2019-10-04 09:30,0.000,0.000,30
2019-10-04 09:45,0.000,0.000,30
2019-10-04 10:00,0.000,0.000,30
2019-10-04 10:15,0.000,0.000,30
2019-10-04 10:30,0.000,0.000,30
2019-10-04 10:45,0.000,0.000,30
2019-10-04 11:00,0.000,0.000,30
2019-10-04 11:15,0.000,0.000,30
2019-10-04 11:30,0.000,0.000,30
2019-10-04 11:45,0.000,0.000,30
2019-10-04 12:00,0.000,0.000,30
2019-10-04 12:15,0.000,0.000,30
2019-10-04 12:30,0.000,0.000,30
2019-10-04 12:45,0.000,0.000,30
2019-10-04 13:00,0.000,0.000,30
2019-10-04 13:15,0.000,0.000,30
2019-10-04 13:30,0.000,0.000,30
2019-10-04 13:45,0.000,0.000,30
2019-10-04 14:00,0.000,0.000,30
2019-10-04 14:15,0.000,0.000,30
2019-10-04 14:30,0.000,0.000,30
2019-10-04 14:45,0.000,0.000,30
2019-10-04 15:00,0.000,0.000,30
2019-10-04 15:15,0.000,0.000,30
2019-10-04 15:30,0.000,0.000,30
2019-10-04 15:45,0.000,0.000,30
2019-10-04 16:00,0.000,0.000,30
2019-10-04 16:15,0.000,0.000,30
2019-10-04 16:30,0.000,0.000,30
2019-10-04 16:45,0.000,0.000,30
2019-10-04 17:00,0.000,0.000,30
2019-10-04 17:15,0.000,0.000,30
2019-10-04 17:30,0.000,0.000,30
2019-10-04 17:45,0.000,0.000,30
2019-10-04 18:00,0.000,0.000,30
2019-10-04 18:15,0.000,0.000,30
2019-10-04 18:30,0.000,0.000,30
2019-10-04 18:45,0.000,0.000,30
2019-10-04 19:00,0.000,0.000,30
2019-10-04 19:15,0.000,0.000,30
2019-10-04 19:30,0.000,0.000,30
2019-10-04 19:45,0.000,0.000,30
2019-10-04 20:00,0.000,0.000,30
2019-10-04 20:15,0.000,0.000,30
2019-10-04 20:30,0.000,0.000,30
2019-10-04 20:45,0.000,0.000,30
2019-10-04 21:00,0.000,0.000,30
2019-10-04 21:15,0.000,0.000,30
2019-10-04 21:30,0.000,0.000,30
2019-10-04 21:45,0.000,0.000,30
2019-10-04 22:00,0.000,0.000,30
2019-10-04 22:15,0.000,0.000,30
2019-10-04 22:30,0.000,0.000,30
2019-10-04 22:45,0.000,0.000,30
2019-10-04 23:00,0.000,0.000,30
2019-10-04 23:15,0.000,0.000,30
2019-10-04 23:30,0.000,0.000,30
2019-10-04 23:45,0.000,0.000,30
2019-10-05 00:00,0.000,0.000,30
2019-10-05 00:15,0.000,0.000,30
2019-10-05 00:30,0.000,0.000,30
2019-10-05 00:45,0.000,0.000,30
2019-10-05 01:00,0.000,0.000,30
2019-10-05 01:15,0.000,0.000,30
2019-10-05 01:30,0.000,0.000,30
2019-10-05 01:45,0.000,0.000,30
2019-10-05 02:00,0.000,0.000,30
2019-10-05 02:15,0.000,0.000,30
2019-10-05 02:30,0.000,0.000,30
2019-10-05 02:45,0.000,0.000,30
2019-10-05 03:00,0.000,0.000,30
2019-10-05 03:15,0.000,0.000,30
2019-10-05 03:30,0.000,0.000,30
2019-10-05 03:45,0.000,0.000,30
2019-10-05 04:00,0.000,0.000,30
2019-10-05 04:15,0.000,0.000,30
2019-10-05 04:30,0.000,0.000,30
2019-10-05 04:45,0.000,0.000,30
2019-10-05 05:00,0.000,0.000,30
2019-10-05 05:15,0.000,0.000,30
2019-10-05 05:30,0.000,0.000,30
2019-10-05 05:45,0.000,0.000,30
2019-10-05 06:00,0.000,0.000,30
2019-10-05 06:15,0.000,0.000,30
2019-10-05 06:30,0.000,0.000,30
2019-10-05 06:45,0.000,0.000,30
2019-10-05 07:00,0.000,0.000,30
2019-10-05 07:15,0.000,0.000,30
2019-10-05 07:30,0.001,0.005,30
2019-10-05 07:45,0.000,0.001,30
2019-10-05 08:00,0.000,0.000,30
2019-10-05 08:15,0.001,0.002,30
2019-10-05 08:30,0.000,0.002,30
2019-10-05 08:45,0.002,0.008,30
2019-10-05 09:00,0.003,0.011,30
2019-10-05 09:15,0.001,0.003,30
2019-10-05 09:30,0.005,0.019,30
2019-10-05 09:45,0.019,0.078,30
2019-10-05 10:00,0.024,0.095,30
2019-10-05 10:15,0.015,0.061,30
2019-10-05 10:30,0.009,0.037,30
2019-10-05 10:45,0.006,0.026,30
2019-10-05 11:00,0.004,0.018,30
2019-10-05 11:15,0.002,0.009,30
2019-10-05 11:30,0.001,0.005,30
2019-10-05 11:45,0.003,0.013,30
2019-10-05 12:00,0.004,0.015,30
2019-10-05 12:15,0.004,0.016,30
2019-10-05 12:30,0.000,0.002,30
2019-10-05 12:45,0.000,0.002,30
2019-10-05 13:00,0.002,0.009,30
2019-10-05 13:15,0.006,0.024,30
2019-10-05 13:30,0.001,0.003,30
2019-10-05 13:45,0.001,0.004,30
2019-10-05 14:00,0.000,0.001,30
2019-10-05 14:15,0.000,0.001,30
2019-10-05 14:30,0.000,0.001,30
2019-10-05 14:45,0.000,0.000,30
2019-10-05 15:00,0.000,0.000,30
2019-10-05 15:15,0.000,0.001,30
2019-10-05 15:30,0.001,0.003,30
2019-10-05 15:45,0.001,0.002,30
2019-10-05 16:00,0.003,0.010,30
2019-10-05 16:15,0.005,0.020,30
2019-10-05 16:30,0.006,0.024,30
2019-10-05 16:45,0.006,0.024,30
2019-10-05 17:00,0.007,0.029,30
2019-10-05 17:15,0.007,0.030,30
2019-10-05 17:30,0.007,0.026,30
2019-10-05 17:45,0.004,0.014,30
2019-10-05 18:00,0.001,0.003,30
2019-10-05 18:15,0.001,0.002,30
2019-10-05 18:30,0.002,0.007,30
2019-10-05 18:45,0.003,0.013,30
2019-10-05 19:00,0.007,0.026,30
2019-10-05 19:15,0.014,0.055,30
2019-10-05 19:30,0.023,0.093,30
2019-10-05 19:45,0.031,0.125,30
2019-10-05 20:00,0.038,0.154,30
2019-10-05 20:15,0.043,0.174,30
2019-10-05 20:30,0.050,0.200,30
2019-10-05 20:45,0.065,0.261,30
2019-10-05 21:00,0.077,0.310,30
2019-10-05 21:15,0.087,0.348,30
2019-10-05 21:30,0.087,0.349,30
2019-10-05 21:45,0.074,0.297,30
2019-10-05 22:00,0.073,0.290,30
2019-10-05 22:15,0.074,0.295,30
2019-10-05 22:30,0.083,0.332,30
2019-10-05 22:45,0.087,0.346,30
2019-10-05 23:00,0.089,0.355,30
2019-10-05 23:15,0.103,0.410,30
2019-10-05 23:30,0.118,0.471,30
2019-10-05 23:45,0.110,0.442,30
2019-10-06 00:00,,,20
2019-10-06 00:15,0.120,0.481,30
2019-10-06 00:30,0.107,0.430,30
2019-10-06 00:45,0.096,0.385,30
2019-10-06 01:00,0.088,0.352,30
2019-10-06 01:15,0.082,0.329,30
2019-10-06 01:30,0.085,0.341,30
2019-10-06 01:45,0.082,0.328,30
2019-10-06 02:00,0.073,0.294,30
2019-10-06 02:15,0.070,0.282,30
2019-10-06 02:30,0.071,0.284,30
2019-10-06 02:45,0.079,0.317,30
2019-10-06 03:00,0.076,0.305,30
2019-10-06 03:15,0.079,0.318,30
2019-10-06 03:30,0.072,0.290,30
2019-10-06 03:45,0.060,0.238,30
2019-10-06 04:00,0.067,0.269,30
2019-10-06 04:15,0.073,0.291,30
2019-10-06 04:30,0.085,0.341,30
2019-10-06 04:45,0.091,0.364,30
2019-10-06 05:00,0.092,0.368,30
2019-10-06 05:15,0.094,0.376,30
2019-10-06 05:30,0.098,0.393,30
2019-10-06 05:45,0.090,0.359,30
2019-10-06 06:00,0.063,0.253,30
2019-10-06 06:15,0.038,0.151,30
2019-10-06 06:30,0.020,0.080,30
2019-10-06 06:45,0.007,0.030,30
2019-10-06 07:00,0.007,0.027,30
2019-10-06 07:15,0.013,0.052,30
2019-10-06 07:30,0.011,0.042,30
2019-10-06 07:45,0.003,0.014,30
2019-10-06 08:00,0.002,0.007,30
2019-10-06 08:15,0.001,0.002,30
2019-10-06 08:30,0.000,0.000,30
2019-10-06 08:45,0.000,0.000,30
2019-10-06 09:00,0.000,0.000,30
2019-10-06 09:15,0.000,0.000,30
2019-10-06 09:30,0.000,0.000,30
2019-10-06 09:45,0.001,0.002,30
2019-10-06 10:00,0.001,0.003,30
2019-10-06 10:15,0.002,0.007,30
2019-10-06 10:30,0.003,0.011,30
2019-10-06 10:45,0.001,0.003,30
2019-10-06 11:00,0.001,0.002,30
2019-10-06 11:15,0.000,0.001,30
2019-10-06 11:30,0.000,0.001,30
2019-10-06 11:45,0.001,0.002,30
2019-10-06 12:00,0.000,0.002,30
2019-10-06 12:15,0.000,0.000,30
2019-10-06 12:30,0.000,0.000,30
2019-10-06 12:45,0.000,0.000,30
2019-10-06 13:00,0.000,0.000,30
2019-10-06 13:15,0.000,0.001,30
2019-10-06 13:30,0.000,0.002,30
2019-10-06 13:45,0.001,0.005,30
2019-10-06 14:00,0.002,0.010,30
2019-10-06 14:15,0.001,0.005,30
2019-10-06 14:30,0.001,0.002,30
2019-10-06 14:45,0.000,0.000,30
2019-10-06 15:00,0.000,0.001,30
2019-10-06 15:15,0.000,0.001,30
2019-10-06 15:30,0.000,0.001,30
2019-10-06 15:45,0.000,0.001,30
2019-10-06 16:00,0.000,0.001,30
2019-10-06 16:15,0.000,0.000,30
2019-10-06 16:30,0.000,0.001,30
2019-10-06 16:45,0.000,0.000,30
2019-10-06 17:00,0.000,0.002,30
2019-10-06 17:15,0.001,0.005,30
2019-10-06 17:30,0.000,0.002,30
2019-10-06 17:45,0.000,0.000,30
2019-10-06 18:00,0.000,0.001,30
2019-10-06 18:15,0.000,0.001,30
2019-10-06 18:30,0.000,0.000,30
2019-10-06 18:45,0.000,0.000,30
2019-10-06 19:00,0.000,0.000,30
2019-10-06 19:15,0.000,0.000,30
2019-10-06 19:30,0.000,0.000,30
2019-10-06 19:45,0.000,0.000,30
2019-10-06 20:00,0.000,0.000,30
2019-10-06 20:15,0.000,0.000,30
2019-10-06 20:30,0.000,0.000,30
2019-10-06 20:45,0.000,0.000,30
2019-10-06 21:00,0.000,0.000,30
2019-10-06 21:15,0.000,0.000,30
2019-10-06 21:30,0.000,0.000,30
2019-10-06 21:45,0.000,0.000,30
2019-10-06 22:00,0.000,0.000,30
2019-10-06 22:15,0.000,0.000,30
2019-10-06 22:30,0.000,0.000,30
2019-10-06 22:45,0.000,0.001,30
2019-10-06 23:00,0.000,0.000,30
2019-10-06 23:15,0.000,0.000,30
2019-10-06 23:30,0.000,0.000,30
2019-10-06 23:45,0.000,0.000,30
2019-10-07 00:00,0.000,0.000,30
2019-10-07 00:15,0.000,0.000,30
2019-10-07 00:30,0.000,0.000,30
2019-10-07 00:45,0.000,0.000,30
2019-10-07 01:00,0.000,0.000,30
2019-10-07 01:15,0.000,0.000,30
2019-10-07 01:30,0.000,0.000,30
2019-10-07 01:45,0.000,0.000,30
2019-10-07 02:00,0.000,0.000,30
2019-10-07 02:15,0.000,0.000,30
2019-10-07 02:30,0.000,0.000,30
2019-10-07 02:45,0.000,0.000,30
2019-10-07 03:00,0.000,0.000,30
2019-10-07 03:15,0.002,0.010,30
2019-10-07 03:30,0.024,0.095,30
2019-10-07 03:45,0.038,0.154,30
2019-10-07 04:00,0.028,0.113,30
2019-10-07 04:15,0.032,0.126,30
2019-10-07 04:30,0.035,0.141,30
2019-10-07 04:45,0.034,0.138,30
2019-10-07 05:00,0.055,0.220,30
2019-10-07 05:15,0.089,0.355,30
2019-10-07 05:30,0.114,0.458,30
2019-10-07 05:45,0.105,0.421,30
2019-10-07 06:00,0.072,0.288,30
2019-10-07 06:15,0.027,0.110,30
2019-10-07 06:30,0.003,0.012,30
2019-10-07 06:45,0.001,0.002,30
2019-10-07 07:00,0.001,0.005,30
2019-10-07 07:15,0.002,0.008,30
2019-10-07 07:30,0.001,0.004,30
2019-10-07 07:45,0.002,0.008,30
2019-10-07 08:00,0.000,0.001,30
2019-10-07 08:15,0.000,0.001,30
2019-10-07 08:30,0.000,0.000,30
2019-10-07 08:45,0.001,0.003,30
2019-10-07 09:00,0.000,0.001,30
2019-10-07 09:15,0.000,0.000,30
2019-10-07 09:30,0.000,0.000,30
2019-10-07 09:45,0.001,0.005,30
2019-10-07 10:00,0.005,0.021,30
2019-10-07 10:15,0.005,0.021,30
2019-10-07 10:30,0.002,0.008,30
2019-10-07 10:45,0.001,0.005,30
2019-10-07 11:00,0.000,0.001,30
2019-10-07 11:15,0.000,0.001,30
2019-10-07 11:30,0.000,0.001,30
2019-10-07 11:45,0.000,0.001,30
2019-10-07 12:00,,,23
2019-10-07 12:15,,,
2019-10-07 12:30,,,
2019-10-07 12:45,,,
2019-10-07 13:00,,,
2019-10-07 13:45,,,
2019-10-07 14:00,,,
2019-10-07 14:15,0.002,0.009,30
2019-10-07 14:30,0.000,0.001,30
2019-10-07 14:45,0.000,0.001,30
2019-10-07 15:00,0.000,0.000,30
2019-10-07 15:15,0.000,0.000,30
2019-10-07 15:30,0.000,0.000,30
2019-10-07 15:45,0.000,0.000,30
2019-10-07 16:00,0.000,0.002,30
2019-10-07 16:15,0.001,0.006,30
2019-10-07 16:30,0.001,0.002,30
2019-10-07 16:45,0.000,0.001,30
2019-10-07 17:00,0.000,0.000,30
2019-10-07 17:15,0.000,0.000,30
2019-10-07 17:30,0.000,0.000,30
2019-10-07 17:45,0.000,0.000,30
2019-10-07 18:00,0.000,0.000,30
2019-10-07 18:15,0.000,0.000,30
2019-10-07 18:30,0.000,0.000,30
2019-10-07 18:45,0.000,0.000,30
2019-10-07 19:00,0.000,0.000,30
2019-10-07 19:15,0.000,0.000,30
2019-10-07 19:30,0.000,0.000,30
2019-10-07 19:45,0.002,0.009,30
2019-10-07 20:00,0.016,0.062,30
2019-10-07 20:15,0.025,0.101,30
2019-10-07 20:30,0.012,0.047,30
2019-10-07 20:45,0.000,0.002,30
2019-10-07 21:00,0.000,0.000,30
2019-10-07 21:15,0.000,0.000,30
2019-10-07 21:30,0.000,0.000,30
2019-10-07 21:45,0.000,0.001,30
2019-10-07 22:00,0.000,0.000,30
2019-10-07 22:15,0.000,0.000,30
2019-10-07 22:30,0.000,0.000,30
2019-10-07 22:45,0.000,0.000,30
2019-10-07 23:00,0.000,0.000,30
2019-10-07 23:15,0.000,0.000,30
2019-10-07 23:30,0.000,0.000,30
2019-10-07 23:45,0.000,0.000,30
2019-10-08 00:00,0.000,0.001,30
2019-10-08 00:15,0.001,0.003,30
2019-10-08 00:30,0.001,0.005,30
2019-10-08 00:45,0.003,0.010,30
2019-10-08 01:00,0.001,0.004,30
2019-10-08 01:15,0.001,0.002,30
2019-10-08 01:30,0.001,0.005,30
2019-10-08 01:45,0.009,0.037,30
2019-10-08 02:00,0.012,0.047,30
2019-10-08 02:15,0.006,0.023,30
2019-10-08 02:30,0.002,0.008,30
2019-10-08 02:45,0.004,0.017,30
2019-10-08 03:00,0.007,0.029,30
2019-10-08 03:15,0.004,0.016,30
2019-10-08 03:30,0.000,0.002,30
2019-10-08 03:45,0.000,0.001,30
2019-10-08 04:00,0.001,0.004,30
2019-10-08 04:15,0.003,0.013,30
2019-10-08 04:30,0.004,0.014,30
2019-10-08 04:45,0.001,0.005,30
2019-10-08 05:00,0.001,0.002,30
2019-10-08 05:15,0.001,0.004,30
2019-10-08 05:30,0.000,0.001,30
2019-10-08 05:45,0.000,0.001,30
2019-10-08 06:00,0.000,0.001,30
2019-10-08 06:15,0.001,0.004,30
2019-10-08 06:30,0.004,0.014,30
2019-10-08 06:45,0.002,0.008,30
2019-10-08 07:00,0.004,0.014,30
2019-10-08 07:15,0.008,0.031,30
2019-10-08 07:30,0.017,0.067,30
2019-10-08 07:45,0.030,0.122,30
2019-10-08 08:00,0.030,0.118,30
2019-10-08 08:15,0.025,0.101,30
2019-10-08 08:30,0.015,0.060,30
2019-10-08 08:45,0.014,0.054,30
2019-10-08 09:00,0.007,0.030,30
2019-10-08 09:15,0.004,0.017,30
2019-10-08 09:30,0.011,0.044,30
2019-10-08 09:45,0.007,0.030,30
2019-10-08 10:00,0.001,0.006,30
2019-10-08 10:15,0.000,0.000,30
2019-10-08 10:30,0.000,0.000,30
2019-10-08 10:45,0.000,0.000,30
2019-10-08 11:00,0.000,0.000,30
2019-10-08 11:15,0.000,0.000,30
2019-10-08 11:30,0.000,0.000,30
2019-10-08 11:45,0.000,0.000,30
2019-10-08 12:00,0.000,0.000,30
2019-10-08 12:15,0.000,0.000,30
2019-10-08 12:30,0.000,0.000,30
2019-10-08 12:45,0.000,0.000,30
2019-10-08 13:00,0.000,0.001,30
2019-10-08 13:15,0.000,0.002,30
2019-10-08 13:30,0.001,0.004,30
2019-10-08 13:45,0.001,0.003,30
2019-10-08 14:00,0.001,0.003,30
2019-10-08 14:15,0.000,0.001,30
2019-10-08 14:30,0.000,0.000,30
2019-10-08 14:45,0.000,0.000,30
2019-10-08 15:00,0.000,0.000,30
2019-10-08 15:15,0.000,0.000,30
2019-10-08 15:30,0.000,0.000,30
2019-10-08 15:45,0.000,0.000,30
2019-10-08 16:00,0.000,0.001,30
2019-10-08 16:15,0.000,0.001,30
2019-10-08 16:30,0.001,0.005,30
2019-10-08 16:45,0.003,0.013,30
2019-10-08 17:00,0.012,0.047,30
2019-10-08 17:15,0.043,0.170,30
2019-10-08 17:30,0.093,0.371,30
2019-10-08 17:45,0.119,0.474,30
2019-10-08 18:00,0.123,0.493,30
2019-10-08 18:15,0.061,0.245,30
2019-10-08 18:30,0.009,0.036,30
2019-10-08 18:45,0.001,0.002,30
2019-10-08 19:00,0.002,0.006,30
2019-10-08 19:15,0.001,0.006,30
2019-10-08 19:30,0.005,0.018,30
2019-10-08 19:45,0.015,0.061,30
2019-10-08 20:00,0.024,0.097,30